Regional Weather Roundup
Issued by NWS Newport/Morehead, NC

Home | Current Version | Previous Version | Text Only | Print | Product List | Glossary On
Versions: 1 2 3 4 5 6 7 8 9 10 11 12 13 14 15 16 17 18 19 20 21 22 23 24 25 26 27 28 29 30 31 32 33 34 35 36 37 38 39 40 41 42 43 44 45 46 47 48 49 50
000
ASUS42 KMHX 231924
RWRMHX
WEATHER ROUNDUP FOR EASTERN NORTH CAROLINA
NATIONAL WEATHER SERVICE NEWPORT/MOREHEAD CITY NC
300 PM EDT THU MAR 23 2017

NOTE: "FAIR" INDICATES FEW OR NO CLOUDS BELOW 12,000 FEET
WITH NO SIGNIFICANT WEATHER AND/OR OBSTRUCTIONS TO VISIBILITY

NCZ015>017-031-032-045>047-102-103-232000-
NORTH COAST

CITY           SKY/WX    TMP DP  RH WIND       PRES   REMARKS
EDENTON        SUNNY     49  28  44 E9        30.59F
ELIZABETH CITY SUNNY     45  22  40 NE10      30.61F
KITTY HAWK     NOT AVBL
MANTEO         SUNNY     41  24  49 NE10G16   30.61S

$$

NCZ045>047-081-094-103-104-232000-
CENTRAL COAST

CITY           SKY/WX    TMP DP  RH WIND       PRES   REMARKS
FRISCO         SUNNY     46  27  47 NE14G24   30.59F

$$

NCZ095-097-098-100-101-232000-
SOUTHERN COAST

CITY           SKY/WX    TMP DP  RH WIND       PRES   REMARKS
BEAUFORT       SUNNY     50  27  40 NE13G22   30.57F
CEDAR ISLAND   NOT AVBL
JACKSONVILLE   SUNNY     54  23  30 E7        30.55F
PINEY ISLAND   CLEAR    N/A N/A N/A NE17      30.58F
WILMINGTON     SUNNY     52  29  41 SE10G18   30.55F


$$

NCZ011>013-027>030-043-044-078>080-089-090>093-098-232000-
COASTAL PLAIN

CITY           SKY/WX    TMP DP  RH WIND       PRES   REMARKS
AHOSKIE        NOT AVBL
CLINTON        SUNNY     54  25  32 E6        30.56F
ELIZABETHTOWN  SUNNY     57  24  27 N6        30.53F
GOLDSBORO      SUNNY     53  20  26 N8        30.54F
GREENVILLE     SUNNY     52  21  30 E6        30.56F
HAVELOCK       SUNNY     51  29  42 E14       30.58F
KENANSVILLE    SUNNY     54  21  28 N5        30.55F
KINSTON        SUNNY     52  19  28 NE10      30.57F
NEW BERN       SUNNY     52  22  30 E7        30.57F
RICHLANDS      SUNNY     53  24  32 VRB5      30.55F
ROCKY MOUNT    SUNNY     51  15  23 VRB7      30.57F
WASHINGTON     SUNNY     51  27  39 NE9       30.58S
WHITEVILLE     SUNNY     56  23  27 SE5       30.52F

$$

AMZ130-135-150-152-154-156-158-170-250-252-270-ANZ085-086-088-633-658-670-232000-
MARINE OBSERVATIONS

STATION/POSITION TIME  TEMP    WIND        PRES    WAVE   SWELL
                       AIR SEA DIR/SP/G            HT/PER HT/PER
                 (UTC) (F)     (DEG/KT/KT) (MB)    (FT/S) (FT/S)
CHESAPEAKE LIGHT NOT AVBL
64 E VA BEACH    1850   38 50   10/ 12/ 16 1035.7    6/ 8   5/ 8
DUCK             1900   37 48   20/ 12/ 14 1036.1
2 E DUCK         1900      47                N/A     5/ 7   2/11
OREGON INLET     1900   40 49   10/ 11/ 15 1036.2
13E OREGON INLT  NOT AVBL
HATTERAS CG      1900   42 51   30/ 13/ 19 1035.4
DIAMOND BUOY     1850   46 74   30/ 16/ 21 1035.0    9/11   8/11
CAPE LOOKOUT     1900   45      30/ 18/ 22 1035.0
BEAUFORT LAB     1900   46 51   20/ 12/ 16 1034.3
30 SE NEW RVR IN 1908   48      50/ 17/ 27 1034.5
30 SE NEW RVR IN 1913      67                N/A     6/ 6   2/11
27 SE WRIGHTSVLE 1908   49 62   80/ 16/ 23 1033.6
5 SE WRIGHTSVLE  1908   48 57   90/ 14/ 21 1034.6
225 S CAPE HAT   1850   60 72   40/ 17/ 23 1030.0    7/ 9   5/ 9
41 SE CHARLESTON 1850   59 71   30/ 23/ 29 1030.6    6/ 6   2/ 9

$$



USA.gov is the U.S. government's official web portal to all federal, state and local government web resources and services.